[[{"header":{"parameterUnit":"m.s-1","parameterCategory":1,"la1":30.2992,"la2":30.254,"lo1":-89.0895,"lo2":-89.0443,"dy":0.0025,"dx":0.0025,"nx":19,"ny":19,"refTime":"2026-03-21T03:00:00:Z","depth":0,"parameterNumber":2,"parameterNumberName":"U-component_of_WINDS"},"data":[0,0,0,1.387,1.3871,1.3916,1.3917,1.3977,1.3978,0,0,0,0,0,0,0,0,0,0,0,1.3854,1.3855,1.387,1.3871,1.3916,1.3917,1.3977,1.3978,0,0,0,0,0,0,0,0,0,0,0,1.3854,1.3855,1.3855,1.3871,1.3916,1.3917,1.3977,1.3943,0,0,0,0,0,0,0,0,0,0,1.3899,1.388,1.3855,1.3855,1.3872,1.3916,1.3917,1.3941,1.3945,1.3957,0,1.3963,0,1.3971,1.3981,1.3982,0,0,0,1.3873,1.3877,1.3892,1.3855,1.3872,1.3916,1.3897,1.3943,1.3947,1.3962,1.3964,1.3966,1.3972,1.3982,1.3982,1.4039,1.4039,0,0,1.3871,1.3862,1.3889,1.3894,1.3884,1.3895,1.3898,1.3946,1.3949,1.3964,1.3968,1.3973,1.3982,1.3983,1.4039,1.4039,0,0,0,1.3862,1.386,1.3873,1.3892,1.39,1.3896,1.39,1.3947,1.3952,1.3968,1.3974,1.3982,1.3983,1.4039,1.4039,1.4039,0,0,0,1.3861,1.3855,1.3872,1.3867,1.3899,1.3923,1.39,1.3948,1.3954,1.3974,1.3983,1.3984,1.4038,1.4039,1.4039,1.4041,0,0,0,1.3852,1.3854,1.3859,1.3866,1.3885,1.3922,1.393,1.395,1.3957,1.3982,1.3984,1.4038,1.4039,1.4038,1.404,1.4056,0,0,0,1.3841,1.3856,1.3859,1.388,1.3884,1.3921,1.393,1.3957,1.3978,1.3983,1.4038,1.4039,1.4038,1.404,1.4056,1.4069,1.4073,0,0,1.3856,1.3858,1.3871,1.3875,1.3908,1.3915,1.395,1.3978,1.3989,1.4023,1.4024,1.4039,1.404,1.4056,1.4095,1.4098,0,0,0,1.3873,1.3883,1.3894,1.3913,1.3934,1.3956,1.3979,1.3991,1.402,1.4003,1.4048,1.4049,1.4059,1.4066,1.4069,1.408,1.4041,1.4041,1.4041,1.388,1.3895,1.3919,1.3941,1.396,1.3987,1.4006,1.4027,1.4034,1.4046,1.4056,1.4077,1.4085,1.4087,1.4098,1.4062,1.4062,1.4062,1.4062,1.3905,1.3923,1.3937,1.3965,1.3983,1.4009,1.4038,1.4044,1.4074,1.4069,1.4079,1.4074,1.409,1.4101,1.4063,1.4063,1.4063,1.4063,1.4063,1.3912,1.3924,1.3938,1.3972,1.3997,1.402,1.4049,1.4064,1.4078,1.4088,1.4103,1.4103,1.4108,1.4094,1.4094,1.4094,1.4094,1.4094,1.4094,1.3915,1.3931,1.3952,1.3981,1.3999,1.4024,1.4057,1.4076,1.4102,1.4111,1.4111,1.4122,1.4087,1.408,1.4095,1.4095,1.4095,1.4095,1.4095,1.3936,1.3935,1.3968,1.3986,1.4025,1.4053,1.4073,1.4112,1.4131,1.4146,1.4156,1.4127,1.4131,1.4129,1.4124,1.415,1.415,1.415,1.415,1.3944,1.3948,1.3988,1.4017,1.4047,1.4071,1.4115,1.4143,1.4172,1.4187,1.4185,1.4179,1.4176,1.4182,1.4178,1.4174,1.4212,1.4212,1.4212,1.396,1.3969,1.4,1.4027,1.4061,1.4092,1.4135,1.4173,1.4206,1.4215,1.4199,1.4197,1.4186,1.4181,1.4188,1.4183,1.4174,0,0]},{"header":{"parameterUnit":"m.s-1","parameterCategory":1,"la1":30.2992,"la2":30.254,"lo1":-89.0895,"lo2":-89.0443,"dy":0.0025,"dx":0.0025,"nx":19,"ny":19,"refTime":"2026-03-21T03:00:00:Z","depth":0,"parameterNumber":3,"parameterNumberName":"V-component_of_WINDS"},"data":[0,0,0,4.5579,4.5582,4.5721,4.5722,4.5885,4.5886,0,0,0,0,0,0,0,0,0,0,0,4.5529,4.553,4.5579,4.5582,4.5721,4.5722,4.5884,4.5886,0,0,0,0,0,0,0,0,0,0,0,4.5528,4.5529,4.553,4.5582,4.5721,4.5722,4.5884,4.5784,0,0,0,0,0,0,0,0,0,0,4.5651,4.5596,4.5529,4.553,4.5583,4.5721,4.5722,4.5779,4.579,4.5815,0,4.5836,0,4.5864,4.5896,4.5897,0,0,0,4.5587,4.5587,4.5633,4.5531,4.5584,4.5721,4.566,4.5786,4.5798,4.5829,4.5838,4.5845,4.5867,4.5897,4.5898,4.6029,4.603,0,0,4.558,4.5548,4.5625,4.5641,4.562,4.5655,4.5664,4.5793,4.58,4.5839,4.5849,4.5869,4.5898,4.5899,4.6029,4.6029,0,0,0,4.5554,4.5542,4.5586,4.5634,4.566,4.5659,4.567,4.5794,4.5811,4.5851,4.5871,4.5899,4.5901,4.6029,4.6029,4.6019,0,0,0,4.5549,4.5528,4.5582,4.5564,4.5658,4.5729,4.5667,4.5802,4.5818,4.587,4.5899,4.5902,4.6028,4.6029,4.6018,4.6018,0,0,0,4.5522,4.5525,4.5542,4.5562,4.5622,4.5728,4.5753,4.5807,4.583,4.5897,4.5903,4.6028,4.6029,4.6018,4.6017,4.6046,0,0,0,4.5484,4.5526,4.5541,4.5598,4.562,4.5721,4.5752,4.5828,4.5883,4.59,4.6028,4.6029,4.6018,4.6017,4.6046,4.6066,4.6071,0,0,4.552,4.5529,4.5566,4.5583,4.5674,4.5702,4.5791,4.587,4.5903,4.5985,4.5989,4.6018,4.6017,4.6046,4.6109,4.6113,0,0,0,4.5566,4.5592,4.5623,4.5677,4.5741,4.5797,4.5866,4.5897,4.5969,4.5939,4.6037,4.6037,4.6055,4.6066,4.607,4.6089,4.6032,4.6032,4.6032,4.557,4.5616,4.568,4.5743,4.5795,4.587,4.5916,4.5969,4.5994,4.6018,4.6042,4.6075,4.6087,4.609,4.6109,4.6055,4.6055,4.6055,4.6055,4.5629,4.5673,4.5714,4.579,4.5838,4.5902,4.5977,4.5995,4.6061,4.6059,4.6077,4.6071,4.6093,4.6112,4.6055,4.6055,4.6055,4.6055,4.6055,4.5637,4.5667,4.5706,4.5794,4.5856,4.5918,4.5983,4.6022,4.606,4.6078,4.611,4.6111,4.6118,4.6091,4.6091,4.6091,4.6091,4.6091,4.6091,4.563,4.5675,4.5726,4.5803,4.5847,4.5908,4.5988,4.6031,4.6089,4.6113,4.6114,4.6139,4.6087,4.6074,4.6093,4.6093,4.6093,4.6093,4.6092,4.5673,4.5671,4.5749,4.5794,4.5891,4.5952,4.6005,4.6091,4.6132,4.6164,4.6188,4.6142,4.6153,4.6151,4.614,4.6176,4.6176,4.6176,4.6176,4.568,4.5692,4.5785,4.5853,4.5925,4.5983,4.6072,4.6137,4.6202,4.6231,4.6232,4.6222,4.6217,4.6231,4.6227,4.6218,4.6273,4.6273,4.6273,4.571,4.5732,4.58,4.5868,4.5949,4.6018,4.6104,4.6182,4.6255,4.6278,4.6256,4.6252,4.6235,4.6227,4.6247,4.6239,4.6223,0,0]}]]